Time_in_sec,Latitude,Longitude,Altitude,Nbsat_max_qualitysignal,Nbsat_locked,valid_data
1314271612.94948316,-0.00006714,0.00005117,-10420.91992188,0,2,0
1314271752.50044012,-0.00006625,0.00004953,-12855.85644531,0,2,0
1314271752.54858518,-0.00006628,0.00004950,-12856.76464844,0,2,0
1314271752.60046506,-0.00006625,0.00004953,-12857.67382812,0,2,0
1314271752.65170240,-0.00006628,0.00004950,-12858.58203125,0,2,0
1314271752.70049071,-0.00006625,0.00004953,-12859.49121094,0,2,0
1314271752.74843144,-0.00006628,0.00004950,-12860.39941406,0,2,0
1314271752.80043674,-0.00006625,0.00004953,-12861.30859375,0,2,0
1314271752.84868670,-0.00006628,0.00004950,-12862.21679688,0,2,0
1314271752.89750552,-0.00006624,0.00004953,-12863.12597656,0,2,0
1314271752.94860435,-0.00006627,0.00004950,-12864.03515625,0,2,0
1314271752.99748898,-0.00006624,0.00004953,-12864.94335938,0,2,0
1314271753.05015850,-0.00006627,0.00004949,-12865.85253906,0,2,0
1314271753.09749889,-0.00006624,0.00004953,-12866.76171875,0,2,0
1314271753.14869475,-0.00006627,0.00004949,-12867.66992188,0,2,0
1314271753.19838357,-0.00006624,0.00004953,-12868.57910156,0,2,0
1314271753.24896550,-0.00006627,0.00004949,-12869.48828125,0,2,0
1314271753.29835057,-0.00006624,0.00004953,-12870.39746094,0,2,0
1314271753.34845638,-0.00006627,0.00004949,-12871.30664062,0,2,0
1314271753.40152693,-0.00006623,0.00004953,-12872.21582031,0,2,0
1314271753.45179439,-0.00006626,0.00004949,-12873.12402344,0,2,0
1314271753.50051069,-0.00006623,0.00004953,-12874.03320312,0,2,0
1314271753.54849386,-0.00006626,0.00004949,-12874.94238281,0,2,0
1314271753.60043955,-0.00006623,0.00004953,-12875.85156250,0,2,0
1314271753.64849925,-0.00006626,0.00004949,-12876.76074219,0,2,0
1314271753.70045590,-0.00006623,0.00004953,-12877.66992188,0,2,0
1314271753.74848199,-0.00006626,0.00004949,-12878.57910156,0,2,0
1314271753.80051351,-0.00006623,0.00004953,-12879.48925781,0,2,0
1314271753.85245490,-0.00006625,0.00004949,-12880.39843750,0,2,0
1314271753.89762998,-0.00006622,0.00004953,-12881.30761719,0,2,0
1314271753.94859004,-0.00006625,0.00004949,-12882.21679688,0,2,0
1314271754.00054765,-0.00006622,0.00004952,-12883.12597656,0,2,0
1314271754.04849505,-0.00006625,0.00004949,-12884.03515625,0,2,0
1314271754.09808922,-0.00006622,0.00004952,-12884.94531250,0,2,0
1314271754.14859033,-0.00006625,0.00004949,-12885.85449219,0,2,0
1314271754.19749570,-0.00006622,0.00004952,-12886.76464844,0,2,0
1314271754.25078678,-0.00006625,0.00004949,-12887.67382812,0,2,0
1314271754.29730725,-0.00006622,0.00004952,-12888.58300781,0,2,0
1314271754.35248899,-0.00006624,0.00004949,-12889.49316406,0,2,0
1314271754.40048218,-0.00006621,0.00004952,-12890.40234375,0,2,0
1314271754.44953132,-0.00006624,0.00004949,-12891.31250000,0,2,0
1314271754.50043964,-0.00006621,0.00004952,-12892.22167969,0,2,0
1314271754.54995489,-0.00006624,0.00004949,-12893.13183594,0,2,0
1314271754.59757400,-0.00006621,0.00004952,-12894.04199219,0,2,0
1314271754.65030169,-0.00006624,0.00004949,-12894.95117188,0,2,0
1314271754.70161223,-0.00006621,0.00004952,-12895.86132812,0,2,0
1314271754.74946189,-0.00006624,0.00004949,-12896.77148438,0,2,0
1314271754.80151987,-0.00006621,0.00004952,-12897.68066406,0,2,0
1314271754.84950805,-0.00006623,0.00004949,-12898.59082031,0,2,0
1314271754.90045452,-0.00006620,0.00004952,-12899.50097656,0,2,0
1314271754.94960594,-0.00006623,0.00004949,-12900.41113281,0,2,0
1314271755.00059271,-0.00006620,0.00004952,-12901.32128906,0,2,0
1314271755.04982781,-0.00006623,0.00004949,-12902.23046875,0,2,0
1314271755.10159183,-0.00006620,0.00004952,-12903.14062500,0,2,0
1314271755.14850855,-0.00006623,0.00004948,-12904.05078125,0,2,0
1314271755.19709754,-0.00006620,0.00004952,-12904.96093750,0,2,0
1314271755.24858165,-0.00006622,0.00004948,-12905.87109375,0,2,0
1314271755.29767108,-0.00006620,0.00004952,-12906.78125000,0,2,0
1314271755.34960365,-0.00006622,0.00004948,-12907.69140625,0,2,0
1314271755.39771962,-0.00006619,0.00004952,-12908.60156250,0,2,0
1314271755.45228601,-0.00006622,0.00004948,-12909.51171875,0,2,0
1314271755.50058126,-0.00006619,0.00004952,-12910.42285156,0,2,0
1314271755.54945827,-0.00006622,0.00004948,-12911.33300781,0,2,0
1314271755.60044312,-0.00006619,0.00004952,-12912.24316406,0,2,0
1314271755.64154577,-0.00006622,0.00004948,-12913.15332031,0,2,0
1314271755.70049095,-0.00006621,0.00004948,-12913.88183594,0,2,0
1314271755.74958754,-0.00006621,0.00004948,-12914.97460938,0,2,0
1314271755.80158424,-0.00006619,0.00004952,-12915.88476562,0,2,0
1314271755.84853745,-0.00006621,0.00004948,-12916.79492188,0,2,0
1314271755.90160227,-0.00006618,0.00004952,-12917.70605469,0,2,0
1314271755.94854093,-0.00006621,0.00004948,-12918.61621094,0,2,0
1314271756.00154662,-0.00006618,0.00004952,-12919.52734375,0,2,0
1314271756.04950309,-0.00006621,0.00004948,-12920.43750000,0,2,0
1314271756.09750342,-0.00006618,0.00004952,-12921.34863281,0,2,0
1314271756.14850259,-0.00006621,0.00004948,-12922.25878906,0,2,0
1314271756.20054221,-0.00006618,0.00004952,-12923.16992188,0,2,0
1314271756.24976468,-0.00006620,0.00004948,-12924.08007812,0,2,0
1314271756.29750729,-0.00006618,0.00004952,-12924.99121094,0,2,0
1314271756.34946012,-0.00006620,0.00004948,-12925.90136719,0,2,0
1314271756.40147090,-0.00006618,0.00004952,-12926.81250000,0,2,0
1314271756.44960356,-0.00006620,0.00004948,-12927.72363281,0,2,0
1314271756.49825644,-0.00006617,0.00004952,-12928.63378906,0,2,0
1314271756.54848242,-0.00006620,0.00004948,-12929.54492188,0,2,0
1314271756.60227561,-0.00006617,0.00004952,-12930.45605469,0,2,0
1314271756.65250921,-0.00006620,0.00004948,-12931.36718750,0,2,0
1314271756.70158911,-0.00006617,0.00004952,-12932.27832031,0,2,0
1314271756.75262833,-0.00006619,0.00004948,-12933.18847656,0,2,0
1314271756.80151558,-0.00006617,0.00004952,-12934.09960938,0,2,0
1314271756.84851050,-0.00006619,0.00004948,-12935.01074219,0,2,0
1314271756.90043664,-0.00006617,0.00004952,-12935.92187500,0,2,0
1314271756.94999027,-0.00006619,0.00004948,-12936.83300781,0,2,0
1314271756.99811316,-0.00006617,0.00004952,-12937.74414062,0,2,0
1314271757.04856324,-0.00006619,0.00004948,-12938.65527344,0,2,0
1314271757.10160232,-0.00006616,0.00004952,-12939.56640625,0,2,0
1314271757.14947557,-0.00006619,0.00004948,-12940.47753906,0,2,0
1314271757.20149088,-0.00006616,0.00004952,-12941.38867188,0,2,0
1314271757.24848270,-0.00006618,0.00004948,-12942.30078125,0,2,0
1314271757.29742551,-0.00006616,0.00004952,-12943.21191406,0,2,0
1314271757.34959936,-0.00006618,0.00004948,-12944.12304688,0,2,0
1314271757.39696646,-0.00006616,0.00004952,-12945.03417969,0,2,0
1314271757.45250368,-0.00006618,0.00004948,-12945.94531250,0,2,0
1314271757.50056911,-0.00006616,0.00004952,-12946.85742188,0,2,0
1314271757.54845762,-0.00006618,0.00004948,-12947.76855469,0,2,0
1314271757.60066247,-0.00006615,0.00004952,-12948.67968750,0,2,0
1314271757.64844513,-0.00006618,0.00004948,-12949.59179688,0,2,0
1314271757.70044518,-0.00006615,0.00004951,-12950.50292969,0,2,0
1314271757.74948215,-0.00006617,0.00004948,-12951.41406250,0,2,0
1314271757.80152941,-0.00006615,0.00004951,-12952.32617188,0,2,0
1314271757.84848428,-0.00006617,0.00004948,-12953.23730469,0,2,0
1314271757.89747095,-0.00006615,0.00004951,-12954.14941406,0,2,0
1314271757.94844174,-0.00006617,0.00004948,-12955.06054688,0,2,0
1314271757.99781632,-0.00006615,0.00004951,-12955.97265625,0,2,0
1314271758.04946661,-0.00006617,0.00004948,-12956.88476562,0,2,0
1314271758.10046959,-0.00006615,0.00004951,-12957.79589844,0,2,0
1314271758.14042950,-0.00006617,0.00004948,-12958.70800781,0,2,0
1314271758.19725966,-0.00006617,0.00004948,-12959.43750000,0,2,0
1314271758.25132990,-0.00006617,0.00004948,-12960.53125000,0,2,0
1314271758.29744959,-0.00006614,0.00004951,-12961.44335938,0,2,0
1314271758.34851265,-0.00006616,0.00004948,-12962.35546875,0,2,0
1314271758.40047860,-0.00006614,0.00004951,-12963.26757812,0,2,0
1314271758.44962072,-0.00006616,0.00004948,-12964.17968750,0,2,0
1314271758.49770617,-0.00006614,0.00004951,-12965.09179688,0,2,0
1314271758.54901314,-0.00006616,0.00004948,-12966.00390625,0,2,0
1314271758.60061026,-0.00006614,0.00004951,-12966.91601562,0,2,0
1314271758.64956999,-0.00006616,0.00004948,-12967.82714844,0,2,0
1314271758.70060778,-0.00006614,0.00004951,-12968.74023438,0,2,0
1314271758.74944901,-0.00006616,0.00004947,-12969.65234375,0,2,0
1314271758.80047584,-0.00006614,0.00004951,-12970.56445312,0,2,0
1314271758.84850669,-0.00006616,0.00004947,-12971.47656250,0,2,0
1314271758.89753771,-0.00006613,0.00004951,-12972.38867188,0,2,0
1314271758.94872260,-0.00006615,0.00004947,-12973.30078125,0,2,0
1314271759.00045013,-0.00006613,0.00004951,-12974.21289062,0,2,0
1314271759.04853678,-0.00006615,0.00004947,-12975.12500000,0,2,0
1314271759.10057306,-0.00006613,0.00004951,-12976.03808594,0,2,0
1314271759.14993834,-0.00006615,0.00004947,-12976.95019531,0,2,0
1314271759.20146680,-0.00006613,0.00004951,-12977.86230469,0,2,0
1314271759.24861670,-0.00006615,0.00004947,-12978.77539062,0,2,0
1314271759.29746389,-0.00006613,0.00004951,-12979.68750000,0,2,0
1314271759.34856439,-0.00006615,0.00004947,-12980.59960938,0,2,0
1314271759.39749384,-0.00006613,0.00004951,-12981.51269531,0,2,0
1314271759.44866586,-0.00006615,0.00004947,-12982.42480469,0,2,0
1314271759.49747539,-0.00006613,0.00004951,-12983.33789062,0,2,0
1314271759.54976010,-0.00006615,0.00004947,-12984.25000000,0,2,0
1314271759.60046625,-0.00006612,0.00004951,-12985.16308594,0,2,0
1314271759.64850068,-0.00006614,0.00004947,-12986.07519531,0,2,0
1314271759.69799209,-0.00006612,0.00004951,-12986.98828125,0,2,0
1314271759.74892163,-0.00006614,0.00004947,-12987.90039062,0,2,0
1314271759.80160308,-0.00006612,0.00004951,-12988.81347656,0,2,0
1314271759.84954739,-0.00006614,0.00004947,-12989.72558594,0,2,0
1314271759.89785218,-0.00006612,0.00004951,-12990.63867188,0,2,0
1314271759.94848299,-0.00006614,0.00004947,-12991.55175781,0,2,0
1314271759.98847198,-0.00006612,0.00004951,-12992.46484375,0,2,0
1314271760.04959631,-0.00006612,0.00004951,-12993.19433594,0,2,0
1314271760.09813643,-0.00006612,0.00004951,-12994.29003906,0,2,0
1314271760.14967752,-0.00006614,0.00004947,-12995.20312500,0,2,0
1314271760.20159340,-0.00006612,0.00004951,-12996.11621094,0,2,0
1314271760.24779058,-0.00006614,0.00004947,-12997.02832031,0,2,0
1314271760.30160189,-0.00006612,0.00004951,-12997.94140625,0,2,0
1314271760.34948206,-0.00006614,0.00004947,-12998.85449219,0,2,0
1314271760.39762664,-0.00006611,0.00004951,-12999.76757812,0,2,0
1314271760.44953918,-0.00006613,0.00004947,-13000.68066406,0,2,0
1314271760.49784541,-0.00006611,0.00004951,-13001.59375000,0,2,0
1314271760.54960084,-0.00006613,0.00004947,-13002.50683594,0,2,0
1314271760.60159302,-0.00006611,0.00004951,-13003.41992188,0,2,0
1314271760.64849901,-0.00006613,0.00004947,-13004.33300781,0,2,0
1314271760.70057845,-0.00006611,0.00004951,-13005.24609375,0,2,0
1314271760.74987793,-0.00006613,0.00004947,-13006.15917969,0,2,0
1314271760.80043554,-0.00006611,0.00004951,-13007.07226562,0,2,0
1314271760.84950614,-0.00006613,0.00004947,-13007.98535156,0,2,0
1314271760.90044260,-0.00006611,0.00004951,-13008.89843750,0,2,0
1314271760.94867396,-0.00006613,0.00004947,-13009.81152344,0,2,0
1314271761.00159454,-0.00006611,0.00004951,-13010.72558594,0,2,0
1314271761.05120564,-0.00006613,0.00004947,-13011.63867188,0,2,0
1314271761.10161448,-0.00006611,0.00004951,-13012.55175781,0,2,0
1314271761.14858127,-0.00006613,0.00004947,-13013.46484375,0,2,0
1314271761.20046878,-0.00006610,0.00004951,-13014.37890625,0,2,0
1314271761.24858236,-0.00006612,0.00004947,-13015.29199219,0,2,0
1314271761.29772043,-0.00006610,0.00004951,-13016.20507812,0,2,0
1314271761.34926462,-0.00006612,0.00004947,-13017.11816406,0,2,0
1314271761.39745450,-0.00006610,0.00004951,-13018.03222656,0,2,0
1314271761.45246696,-0.00006612,0.00004947,-13018.94531250,0,2,0
1314271761.49658871,-0.00006610,0.00004951,-13019.85937500,0,2,0
1314271761.54948425,-0.00006612,0.00004947,-13020.77246094,0,2,0
1314271761.60149789,-0.00006610,0.00004951,-13021.68652344,0,2,0
1314271761.64962745,-0.00006612,0.00004947,-13022.59960938,0,2,0
1314271761.69772530,-0.00006610,0.00004951,-13023.51367188,0,2,0
1314271761.74848390,-0.00006612,0.00004947,-13024.42675781,0,2,0
1314271761.80045819,-0.00006610,0.00004951,-13025.34082031,0,2,0
1314271761.84829617,-0.00006612,0.00004947,-13026.25488281,0,2,0
1314271761.89760041,-0.00006610,0.00004951,-13027.16796875,0,2,0
1314271761.94949508,-0.00006612,0.00004947,-13028.08203125,0,2,0
1314271762.00152373,-0.00006610,0.00004951,-13028.99609375,0,2,0
1314271762.04957914,-0.00006612,0.00004947,-13029.91015625,0,2,0
1314271762.09781456,-0.00006610,0.00004951,-13030.82324219,0,2,0
1314271762.14863825,-0.00006612,0.00004947,-13031.73730469,0,2,0
1314271762.20151377,-0.00006609,0.00004951,-13032.65136719,0,2,0
1314271762.24848056,-0.00006611,0.00004947,-13033.56542969,0,2,0
1314271762.30056834,-0.00006609,0.00004951,-13034.47949219,0,2,0
1314271762.34849095,-0.00006611,0.00004947,-13035.39355469,0,2,0
1314271762.40045691,-0.00006609,0.00004951,-13036.30761719,0,2,0
1314271762.44850874,-0.00006611,0.00004947,-13037.22167969,0,2,0
1314271762.50046492,-0.00006609,0.00004951,-13038.13574219,0,2,0
1314271762.54951549,-0.00006611,0.00004947,-13039.04980469,0,2,0
1314271762.60148430,-0.00006609,0.00004951,-13039.96386719,0,2,0
1314271762.64849472,-0.00006611,0.00004947,-13040.87792969,0,2,0
1314271762.70049953,-0.00006609,0.00004951,-13041.79199219,0,2,0
1314271762.75386882,-0.00006611,0.00004947,-13042.70605469,0,2,0
1314271762.80051446,-0.00006609,0.00004951,-13043.62109375,0,2,0
1314271762.84945607,-0.00006611,0.00004947,-13044.53515625,0,2,0
1314271762.89814115,-0.00006609,0.00004951,-13045.44921875,0,2,0
1314271762.94945621,-0.00006611,0.00004947,-13046.36425781,0,2,0
1314271762.99775362,-0.00006608,0.00004951,-13047.27832031,0,2,0
1314271763.05250382,-0.00006610,0.00004947,-13048.19238281,0,2,0
1314271763.10145664,-0.00006608,0.00004951,-13049.10742188,0,2,0
1314271763.15390158,-0.00006610,0.00004947,-13050.02148438,0,2,0
1314271763.20046282,-0.00006608,0.00004951,-13050.93554688,0,2,0
1314271763.24858809,-0.00006610,0.00004947,-13051.85058594,0,2,0
1314271763.29758859,-0.00006608,0.00004951,-13052.76464844,0,2,0
1314271763.34849286,-0.00006610,0.00004947,-13053.67968750,0,2,0
1314271763.38961506,-0.00006608,0.00004951,-13054.59375000,0,2,0
1314271763.45250010,-0.00006608,0.00004951,-13055.32519531,0,2,0
1314271763.50057268,-0.00006608,0.00004951,-13056.42285156,0,2,0
1314271763.54848790,-0.00006610,0.00004947,-13057.33789062,0,2,0
1314271763.60148883,-0.00006608,0.00004951,-13058.25292969,0,2,0
1314271763.64960599,-0.00006610,0.00004947,-13059.16699219,0,2,0
1314271763.68990397,-0.00006608,0.00004951,-13060.08203125,0,2,0
1314271763.74852443,-0.00006608,0.00004951,-13060.81347656,0,2,0
1314271763.80059242,-0.00006607,0.00004951,-13061.91210938,0,2,0
1314271763.85030031,-0.00006610,0.00004947,-13062.82617188,0,2,0
1314271763.89788651,-0.00006607,0.00004951,-13063.74121094,0,2,0
1314271763.95252061,-0.00006609,0.00004947,-13064.65625000,0,2,0
1314271764.00048590,-0.00006607,0.00004951,-13065.57128906,0,2,0
1314271764.04852104,-0.00006609,0.00004947,-13066.48632812,0,2,0
1314271764.09773469,-0.00006607,0.00004951,-13067.40136719,0,2,0
1314271764.14968562,-0.00006609,0.00004947,-13068.31640625,0,2,0
1314271764.20048165,-0.00006607,0.00004951,-13069.23144531,0,2,0
1314271764.24851537,-0.00006609,0.00004947,-13070.14648438,0,2,0
1314271764.29749990,-0.00006607,0.00004951,-13071.06152344,0,2,0
1314271764.34058404,-0.00006609,0.00004947,-13071.97656250,0,2,0
1314271764.39776969,-0.00006609,0.00004947,-13072.70800781,0,2,0
1314271764.44849992,-0.00006609,0.00004947,-13073.80664062,0,2,0
1314271764.49761248,-0.00006607,0.00004951,-13074.72167969,0,2,0
1314271764.54858184,-0.00006609,0.00004947,-13075.63671875,0,2,0
1314271764.60061383,-0.00006606,0.00004951,-13076.55273438,0,2,0
1314271764.64962745,-0.00006609,0.00004947,-13077.46777344,0,2,0
1314271764.70045853,-0.00006606,0.00004951,-13078.38281250,0,2,0
1314271764.74853420,-0.00006608,0.00004947,-13079.29785156,0,2,0
1314271764.80049968,-0.00006606,0.00004950,-13080.21386719,0,2,0
1314271764.84062982,-0.00006608,0.00004947,-13081.12890625,0,2,0
1314271764.89783955,-0.00006608,0.00004947,-13081.86132812,0,2,0
1314271764.94850922,-0.00006608,0.00004947,-13082.95996094,0,2,0
1314271765.00158429,-0.00006606,0.00004950,-13083.87500000,0,2,0
1314271765.05128860,-0.00006608,0.00004947,-13084.79003906,0,2,0
1314271765.09747648,-0.00006606,0.00004950,-13085.70605469,0,2,0
1314271765.13752484,-0.00006608,0.00004947,-13086.62109375,0,2,0
1314271765.20047545,-0.00006608,0.00004947,-13087.35351562,0,2,0
1314271765.24860573,-0.00006608,0.00004947,-13088.45214844,0,2,0
1314271765.28991365,-0.00006606,0.00004950,-13089.36816406,0,2,0
1314271765.34849620,-0.00006605,0.00004950,-13090.10058594,0,2,0
1314271765.40151525,-0.00006605,0.00004950,-13091.19921875,0,2,0
1314271765.44847965,-0.00006608,0.00004947,-13092.11523438,0,2,0
1314271765.50152683,-0.00006605,0.00004950,-13093.03125000,0,2,0
1314271765.54847264,-0.00006607,0.00004947,-13093.94628906,0,2,0
1314271765.60044050,-0.00006605,0.00004950,-13094.86230469,0,2,0
1314271765.64948106,-0.00006607,0.00004947,-13095.77832031,0,2,0
1314271765.70519328,-0.00006605,0.00004950,-13096.69335938,0,2,0
1314271765.74848723,-0.00006607,0.00004947,-13097.60937500,0,2,0
1314271765.80161524,-0.00006605,0.00004950,-13098.52539062,0,2,0
1314271765.85056186,-0.00006607,0.00004947,-13099.44140625,0,2,0
1314271765.90154505,-0.00006605,0.00004950,-13100.35742188,0,2,0
1314271765.94159842,-0.00006607,0.00004947,-13101.27246094,0,2,0
1314271766.00048590,-0.00006607,0.00004947,-13102.00585938,0,2,0
1314271766.03749800,-0.00006607,0.00004947,-13103.10449219,0,2,0
1314271766.08949256,-0.00006607,0.00004947,-13103.83789062,0,2,0
1314271766.14846849,-0.00006604,0.00004950,-13104.75390625,0,2,0
1314271766.19752741,-0.00006604,0.00004950,-13105.85253906,0,2,0
1314271766.25247049,-0.00006606,0.00004947,-13106.76855469,0,2,0
1314271766.30161214,-0.00006604,0.00004950,-13107.68457031,0,2,0
1314271766.33709955,-0.00006606,0.00004947,-13108.60058594,0,2,0
1314271766.39748073,-0.00006606,0.00004947,-13109.33398438,0,2,0
1314271766.44164968,-0.00006606,0.00004947,-13110.43261719,0,2,0
1314271766.50045562,-0.00006606,0.00004947,-13111.16601562,0,2,0
1314271766.54846764,-0.00006606,0.00004947,-13112.26562500,0,2,0
1314271766.58849049,-0.00006604,0.00004950,-13113.18164062,0,2,0
1314271766.63999629,-0.00006603,0.00004950,-13113.91406250,0,2,0
1314271766.70148969,-0.00006606,0.00004947,-13114.83007812,0,2,0
1314271766.74159908,-0.00006606,0.00004947,-13115.92968750,0,2,0
1314271766.79251933,-0.00006606,0.00004947,-13116.66308594,0,2,0
1314271766.84048700,-0.00006603,0.00004950,-13117.58007812,0,2,0
1314271766.88990879,-0.00006606,0.00004947,-13118.49609375,0,2,0
1314271766.94051266,-0.00006603,0.00004950,-13119.41210938,0,2,0
1314271766.98850155,-0.00006605,0.00004947,-13120.32910156,0,2,0
1314271767.04181933,-0.00006603,0.00004950,-13121.24511719,0,2,0
1314271767.08849812,-0.00006605,0.00004947,-13122.16113281,0,2,0
1314271767.14148569,-0.00006603,0.00004950,-13123.07812500,0,2,0
1314271767.18978167,-0.00006605,0.00004947,-13123.99414062,0,2,0
1314271767.24059653,-0.00006603,0.00004950,-13124.91113281,0,2,0
1314271767.28957987,-0.00006605,0.00004947,-13125.82812500,0,2,0
1314271767.34148383,-0.00006602,0.00004950,-13126.74414062,0,2,0
1314271767.38953543,-0.00006605,0.00004947,-13127.66113281,0,2,0
1314271767.44163680,-0.00006602,0.00004950,-13128.57812500,0,2,0
1314271767.48844409,-0.00006605,0.00004947,-13129.49414062,0,2,0
1314271767.54050207,-0.00006602,0.00004950,-13130.41113281,0,2,0
1314271767.58846283,-0.00006604,0.00004947,-13131.32812500,0,2,0
1314271767.64051533,-0.00006602,0.00004950,-13132.24511719,0,2,0
1314271767.68963742,-0.00006604,0.00004947,-13133.16113281,0,2,0
1314271767.74045062,-0.00006602,0.00004950,-13134.07812500,0,2,0
1314271767.78846145,-0.00006604,0.00004947,-13134.99511719,0,2,0
1314271767.84128857,-0.00006602,0.00004950,-13135.91210938,0,2,0
1314271767.88947821,-0.00006604,0.00004947,-13136.82910156,0,2,0
1314271767.94045615,-0.00006601,0.00004950,-13137.74609375,0,2,0
1314271768.00150824,-0.00006604,0.00004947,-13138.66210938,0,2,0
1314271768.04148197,-0.00006604,0.00004947,-13139.76269531,0,2,0
1314271768.08948278,-0.00006604,0.00004947,-13140.49609375,0,2,0
1314271768.14046192,-0.00006601,0.00004950,-13141.41308594,0,2,0
1314271768.18846846,-0.00006604,0.00004947,-13142.33007812,0,2,0
1314271768.23794937,-0.00006601,0.00004950,-13143.24804688,0,2,0
1314271768.28846598,-0.00006603,0.00004947,-13144.16406250,0,2,0
1314271768.34149170,-0.00006601,0.00004950,-13145.08203125,0,2,0
1314271768.38975739,-0.00006603,0.00004947,-13145.99902344,0,2,0
1314271768.44159198,-0.00006601,0.00004950,-13146.91601562,0,2,0
1314271768.49245358,-0.00006603,0.00004947,-13147.83300781,0,2,0
1314271768.53836870,-0.00006600,0.00004950,-13148.75000000,0,2,0
1314271768.58858061,-0.00006603,0.00004947,-13149.66699219,0,2,0
1314271768.64046144,-0.00006600,0.00004950,-13150.58398438,0,2,0
1314271768.68848443,-0.00006603,0.00004946,-13151.50097656,0,2,0
1314271768.74045038,-0.00006600,0.00004950,-13152.41894531,0,2,0
1314271768.78844833,-0.00006603,0.00004946,-13153.33593750,0,2,0
1314271768.84158516,-0.00006600,0.00004950,-13154.25292969,0,2,0
1314271768.89021659,-0.00006602,0.00004946,-13155.16992188,0,2,0
1314271768.94148397,-0.00006600,0.00004950,-13156.08789062,0,2,0
1314271768.98946071,-0.00006602,0.00004946,-13157.00488281,0,2,0
1314271769.03790069,-0.00006600,0.00004950,-13157.92187500,0,2,0
1314271769.08960533,-0.00006602,0.00004946,-13158.83984375,0,2,0
1314271769.14160156,-0.00006599,0.00004950,-13159.75683594,0,2,0
1314271769.20046115,-0.00006602,0.00004946,-13160.67382812,0,2,0
1314271769.23727274,-0.00006602,0.00004946,-13161.77539062,0,2,0
1314271769.29008389,-0.00006602,0.00004946,-13162.50878906,0,2,0
1314271769.34046102,-0.00006599,0.00004950,-13163.42675781,0,2,0
1314271769.38961840,-0.00006602,0.00004946,-13164.34375000,0,2,0
1314271769.43757582,-0.00006599,0.00004950,-13165.26171875,0,2,0
1314271769.48845720,-0.00006601,0.00004946,-13166.17968750,0,2,0
1314271769.54148340,-0.00006599,0.00004950,-13167.09667969,0,2,0
1314271769.59249473,-0.00006601,0.00004946,-13168.01464844,0,2,0
1314271769.64152741,-0.00006598,0.00004949,-13168.93261719,0,2,0
1314271769.68994880,-0.00006601,0.00004946,-13169.84960938,0,2,0
1314271769.74151969,-0.00006598,0.00004949,-13170.76757812,0,2,0
1314271769.78858709,-0.00006601,0.00004946,-13171.68554688,0,2,0
1314271769.84179282,-0.00006598,0.00004949,-13172.60351562,0,2,0
1314271769.88960028,-0.00006601,0.00004946,-13173.52050781,0,2,0
1314271769.94049644,-0.00006598,0.00004949,-13174.43847656,0,2,0
1314271770.00150776,-0.00006601,0.00004946,-13175.35644531,0,2,0
1314271770.04164004,-0.00006601,0.00004946,-13176.45800781,0,2,0
1314271770.08980203,-0.00006601,0.00004946,-13177.19238281,0,2,0
1314271770.14049768,-0.00006598,0.00004949,-13178.10937500,0,2,0
1314271770.18960261,-0.00006600,0.00004946,-13179.02734375,0,2,0
1314271770.23886847,-0.00006597,0.00004949,-13179.94531250,0,2,0
1314271770.28962517,-0.00006600,0.00004946,-13180.86328125,0,2,0
1314271770.34050822,-0.00006597,0.00004949,-13181.78125000,0,2,0
